Location: Freemans Gardens
(41.6414°N, 83.6077°W)
Time: 03:43:11
(UTC+00:00)

CZ-4B R/B - Pass Details

Date: 29 October 2020
Orbit: 808 x 882 km, 99.1° (Epoch: 26 November)

Event Time Altitude Azimuth Distance (km) Brightness Sun altitude
Rises 23:27:03 0° 181° (S) 3,452 6.5 -10.8°
Reaches altitude 10° 23:29:33 10° 187° (S) 2,511 5.9 -11.3°
Maximum altitude 23:34:53 46° 260° (W) 1,145 4.5 -12.3°
Drops below altitude 10° 23:40:11 10° 333° (NNW) 2,485 5.9 -13.2°
Sets 23:42:39 0° 340° (NNW) 3,413 6.5 -13.7°
